Location: *
(46.3500°N, 10.9000°E)
Time: 22:43:49
(UTC+00:00)

Explorer 7 - Pass Details

Date: 23 April 2021
Orbit: 484 x 677 km, 50.3° (Epoch: 05 May)

Event Time Altitude Azimuth Distance (km) Brightness Sun altitude
Rises 20:48:00 0° 280° (W) 2,680 11.1 -22.3°
Reaches altitude 10° 20:50:13 10° 286° (WNW) 1,820 10.2 -22.5°
Maximum altitude 20:54:15 49° 1° (N) 748 7.7 -23.0°
Enters shadow 20:55:51 32° 56° (NE) 1,007 8.1 -23.1°
Drops below altitude 10° 20:58:34 10° 77° (ENE) 1,940 - -23.4°
Sets 21:01:00 0° 83° (E) 2,878 - -23.6°
